Flag for Poland Weather past 2 weeks in Bytom, Poland

Now
41 °F

Passing clouds.


Feels Like: 39 °F
Forecast: 43 / 66 °F
Wind: 3 mph from South

Location: Katowice Airport

Current Time: May 29, 2015 at 12:28:10 AM

Latest Report: May 29, 2015 at 12:00 AM


Visibility: N/A

Pressure: 29.98 "Hg

Humidity: 87%

Dew point: 37 °F

Location of BytomLocation

Historic Weather in Bytom — Graph

°F

Bytom temperature yesterday

Maximum temperature yesterday: 55 °F (at 3:30 PM)
Minimum temperature yesterday: 45 °F (at 4:00 AM)
Average temperature yesterday: 50 °F

Past Weeks' High & Low Weather Summary

 TemperatureHumidityPressure
High75 °F (May 19, 1:00 PM)100% (May 20, 4:30 AM)30.24 "Hg (May 20, 4:30 AM)
Low34 °F (May 15, 3:30 AM)30% (May 18, 3:00 PM)29.74 "Hg (May 14, 6:00 AM)
Average54 °F76%29.98 "Hg
* Reported May 13 11:00 PM — May 28 11:00 PM, Bytom, Weather by CustomWeather, © 2015

Note: Actual official high and low records may vary slightly from our data, if they occured in-between our weather recording intervals... More about our weather records

Advertising

Bytom weather history for previous 24 hours

 ConditionsComfort  
Time TempWeatherWind HumidityBarometerVisibility
11:00 PM
Thu, May 28
45 °FPassing clouds.3 mph81%29.98 "HgN/A
10:30 PM46 °FClear.6 mph76%30.01 "Hg10 mi
10:00 PM48 °FClear.7 mph71%30.01 "Hg10 mi
9:30 PM48 °FSunny.7 mph71%30.01 "Hg10 mi
9:00 PM48 °FPassing clouds.5 mph76%29.98 "HgN/A
8:30 PM52 °FSunny.5 mph67%29.98 "Hg10 mi
8:00 PM54 °FSunny.6 mph54%29.98 "Hg10 mi
7:30 PM55 °FScattered clouds.8 mph51%29.98 "HgN/A
7:00 PM55 °FSunny.6 mph51%30.01 "Hg10 mi
6:30 PM55 °FSunny.6 mph55%30.01 "Hg10 mi
6:00 PM55 °FSunny.8 mph51%30.01 "Hg10 mi
5:30 PM55 °FPartly sunny.8 mph51%30.01 "HgN/A
5:00 PM55 °FScattered clouds.7 mph51%30.01 "HgN/A
4:30 PM55 °FScattered clouds.8 mph55%30.01 "HgN/A
4:00 PM55 °FScattered clouds.7 mph51%30.04 "HgN/A
3:30 PM55 °FPassing clouds.9 mph51%30.04 "HgN/A
3:00 PM54 °FPassing clouds.10 mph63%30.04 "HgN/A
2:30 PM54 °FPartly sunny.9 mph58%30.04 "HgN/A
2:00 PM54 °FPartly sunny.12 mph63%30.04 "HgN/A
1:30 PM54 °FPassing clouds.8 mph58%30.07 "HgN/A
1:00 PM54 °FPassing clouds.7 mph58%30.07 "HgN/A
12:30 PM52 °FScattered clouds.7 mph62%30.07 "HgN/A
12:00 PM52 °FPartly sunny.8 mph62%30.07 "HgN/A
11:30 AM52 °FPartly sunny.10 mph58%30.07 "HgN/A
11:00 AM52 °FPartly sunny.7 mph58%30.07 "HgN/A
10:30 AM52 °FSunny.7 mph67%30.07 "Hg10 mi
10:00 AM50 °FSunny.7 mph71%30.07 "Hg10 mi
9:30 AM48 °FSunny.7 mph76%30.07 "Hg10 mi
9:00 AM48 °FSunny.5 mph76%30.07 "Hg10 mi
8:30 AM48 °FSunny.6 mph76%30.07 "Hg10 mi
8:00 AM48 °FSunny.6 mph82%30.07 "Hg10 mi
7:30 AM46 °FSunny.5 mph87%30.07 "Hg10 mi
7:00 AM46 °FSunny.5 mph82%30.07 "Hg10 mi
6:30 AM46 °FSunny.3 mph87%30.07 "Hg10 mi
6:00 AM45 °FSunny.6 mph87%30.07 "Hg10 mi
5:30 AM46 °FClear.7 mph82%30.07 "Hg10 mi
5:00 AM46 °FClear.6 mph82%30.07 "Hg10 mi
4:30 AM46 °FClear.6 mph87%30.04 "Hg10 mi
4:00 AM45 °FClear.7 mph87%30.04 "Hg10 mi
3:30 AM46 °FClear.7 mph82%30.04 "Hg10 mi
3:00 AM46 °FClear.7 mph82%30.04 "Hg10 mi
2:30 AM46 °FClear.6 mph82%30.04 "Hg10 mi
2:00 AM48 °FClear.9 mph76%30.04 "Hg10 mi
1:30 AM46 °FClear.6 mph82%30.04 "Hg10 mi
1:00 AM48 °FClear.7 mph76%30.04 "Hg10 mi
12:30 AM48 °FClear.7 mph76%30.07 "Hg10 mi
12:00 AM48 °FClear.7 mph76%30.07 "Hg10 mi
Weather by CustomWeather, © 2015

See weather overviewHow to use our weather pages